This is the latest recevied weather packets stored in our database for station/object N1UNH. If no packets are shown the sender has not sent any weather packets the latest 1 day(s).
| Time | Temp. | Humidity | Pressure | Rain* | Wind** | Luminosity | Snow |
|---|---|---|---|---|---|---|---|
| 1778013586 | 27.78° C | 32% | 1009.3 hPa | 0 mm | 0.45 m/s, 204° | 380 W/m² | - |
| 1778013282 | 27.78° C | 31% | 1008.9 hPa | 0 mm | 0.45 m/s, 204° | 279 W/m² | - |
| 1778012978 | 27.78° C | 33% | 1009 hPa | 0 mm | 0.89 m/s, 204° | 234 W/m² | - |
| 1778012675 | 28.33° C | 31% | 1008.9 hPa | 0 mm | 0.89 m/s, 204° | 241 W/m² | - |
| 1778012371 | 28.33° C | 31% | 1009.1 hPa | 0 mm | 0.89 m/s, 204° | 418 W/m² | - |
| 1778012068 | 28.33° C | 30% | 1008.9 hPa | 0 mm | 1.79 m/s, 204° | 429 W/m² | - |
| 1778011767 | 28.89° C | 30% | 1009 hPa | 0 mm | 0.89 m/s, 204° | 424 W/m² | - |
| 1778011463 | 28.89° C | 29% | 1009.2 hPa | 0 mm | 1.34 m/s, 204° | 499 W/m² | - |
| 1778011159 | 28.89° C | 29% | 1009.4 hPa | 0 mm | 0.89 m/s, 204° | 442 W/m² | - |
| 1778010857 | 28.89° C | 29% | 1009.4 hPa | 0 mm | 1.34 m/s, 204° | 473 W/m² | - |
| 1778010553 | 28.89° C | 29% | 1009.6 hPa | 0 mm | 1.34 m/s, 204° | 469 W/m² | - |
| 1778010252 | 29.44° C | 28% | 1009.5 hPa | 0 mm | 1.79 m/s, 204° | 564 W/m² | - |
| 1778009951 | 28.89° C | 28% | 1009.7 hPa | 0 mm | 1.34 m/s, 204° | 630 W/m² | - |
| 1778009649 | 29.44° C | 27% | 1009.3 hPa | 0 mm | 2.24 m/s, 204° | 701 W/m² | - |
| 1778009347 | 29.44° C | 27% | 1009.4 hPa | 0 mm | 0.89 m/s, 204° | 664 W/m² | - |
| 1778009045 | 29.44° C | 27% | 1009.4 hPa | 0 mm | 1.34 m/s, 204° | 727 W/m² | - |
| 1778008742 | 30° C | 27% | 1009.3 hPa | 0 mm | 1.34 m/s, 204° | 737 W/m² | - |
| 1778008440 | 30° C | 29% | 1009.5 hPa | 0 mm | 0.89 m/s, 204° | 708 W/m² | - |
| 1778008137 | 30° C | 28% | 1009.7 hPa | 0 mm | 0.45 m/s, 204° | 735 W/m² | - |
| 1778007832 | 29.44° C | 27% | 1009.5 hPa | 0 mm | 0.89 m/s, 204° | 779 W/m² | - |
| 1778007528 | 29.44° C | 27% | 1009.7 hPa | 0 mm | 0.89 m/s, 204° | 804 W/m² | - |
| 1778007225 | 29.44° C | 29% | 1009.7 hPa | 0 mm | 0.89 m/s, 204° | 804 W/m² | - |
| 1778006921 | 29.44° C | 27% | 1010.4 hPa | 0 mm | 3.58 m/s, 204° | 816 W/m² | - |
| 1778006618 | 29.44° C | 28% | 1010.1 hPa | 0 mm | 3.13 m/s, 204° | 881 W/m² | - |
| 1778006315 | 29.44° C | 28% | 1010.1 hPa | 0 mm | 0.89 m/s, 204° | 833 W/m² | - |
* Rain latest hour (hover to see other rain measurements)
** Current wind speed in m/s (hover to see current wind gust speed)